Location: Newark
(49.1939°N, 0.8136°E)
Time: 19:27:45
(UTC+00:00)

Envisat - Pass Details

Date: 24 November 2019
Orbit: 764 x 766 km, 98.1° (Epoch: 05 December)

Event Time Altitude Azimuth Distance (km) Brightness Sun altitude
Rises 19:11:18 0° 210° (SSW) 3,221 6.6 -29.7°
Reaches altitude 10° 19:14:20 10° 229° (SW) 2,301 6.0 -30.2°
Maximum altitude 19:17:44 18° 271° (W) 1,823 5.7 -30.7°
Drops below altitude 10° 19:21:08 10° 314° (NW) 2,312 6.0 -31.3°
Sets 19:24:13 0° 333° (NNW) 3,243 6.6 -31.8°
